Other Public Products
Issued by NWS Grand Forks, ND

Home | Current Version | Previous Version | Text Only | Print | Product List | Glossary On
Versions: 1 2 3 4 5 6 7 8 9 10 11 12 13 14 15 16 17 18 19 20 21 22 23 24 25 26 27 28 29 30 31 32 33 34 35 36 37 38 39 40 41 42 43 44 45 46 47 48 49 50
000
FPUS83 KFGF 020531
OPUFGF
PRAIRIE TO PINES WEATHER ROUNDUP
NATIONAL WEATHER SERVICE EASTERN NORTH DAKOTA/GRAND FORKS ND
1100 PM CST SUN MAR 01 2015

 **SATELLITE DATA USED TO AUGMENT SKY COVER AT AUTOMATED STATIONS**
 *****  WEATHER ACROSS EASTERN NORTH DAKOTA  *****

CITY           SKY/WX    TMP DP  RH WIND       PRES   REMARKS
GRAND FORKS    CLEAR     10   3  73 W10       30.36R WCI  -4
GRAND FORKS AF CLEAR     11   3  71 W9        30.36R WCI  -2
GRAND CITY NWS   N/A      7 N/A N/A W7          N/A  WCI  -5
BUXTON         NOT AVBL
DEVILS LAKE    CLEAR      9   1  72 W12       30.32S WCI  -6
FARGO          PTCLDY     9   3  77 W9        30.40R WCI  -4
WAHPETON ARPT  CLEAR      9   3  78 W7        30.43R WCI  -3
$$

 *****  WEATHER ACROSS CENTRAL AND WESTERN NORTH DAKOTA  *****

CITY           SKY/WX    TMP DP  RH WIND       PRES   REMARKS
JAMESTOWN      PTCLDY     9   2  73 W7        30.35S WCI  -2
BISMARCK       PTCLDY     3  -2  79 CALM      30.37S
MINOT          PTCLDY     9   2  73 SW12      30.29S WCI  -6
MINOT AFB      PTCLDY     4   0  84 W7        30.29S WCI  -8
GARRISON         N/A      6   1  80 CALM      30.31S
WILLISTON      PTCLDY    10   6  84 SE5       30.26F WCI   2
DICKINSON      CLEAR      7   3  84 S9        30.24F WCI  -7
HETTINGER      PTCLDY     2  -3  80 CALM      30.28F
$$

 *****  OTHER OBSERVATIONS NORTHEAST NORTH DAKOTA  *****

CITY           SKY/WX    TMP DP  RH WIND       PRES   REMARKS
WALHALLA         N/A      9   5  85 W9        30.33R WCI  -5
LANGDON        NOT AVBL
CAVALIER       FAIR       9   5  85 W10       30.34R WCI  -6
GRAFTON        NOT AVBL
CANDO          FAIR       0   0 100 W8        30.32R WCI -15
FORT TOTTEN      N/A     10   2  71 W5        29.95S WCI   2
ROLLA          FAIR       9   7  92 W13       30.27S WCI  -7
RUGBY          FAIR       1   0  92 SW5       30.31S WCI  -8
 ***** THE ABOVE OBSERVATIONS ARE NON NWS ARE NOT QUALITY
        CONTROLLED AND MAY MIS-REPORT RAIN FOR SNOW...
$$

 *****  OTHER OBSERVATIONS SOUTHEAST NORTH DAKOTA *****

CITY           SKY/WX    TMP DP  RH WIND       PRES   REMARKS
COOPERSTOWN    NOT AVBL
VALLEY CITY    FAIR       9   5  85 W12       30.36S WCI  -6
OAKES            N/A      7   1  78 SW8       30.40S WCI  -6
GWINNER        CLEAR     12   5  73 W9        30.41S WCI   0
BUFFALO        NOT AVBL
WYNDMERE         N/A     10   5  79 W7          N/A  WCI   0
 ***** THE ABOVE OBSERVATIONS ARE NON NWS ARE NOT QUALITY
       CONTROLLED AND MAY MIS-REPORT RAIN FOR SNOW...
$$

  *****  WEATHER ACROSS NORTHERN MINNESOTA  *****

CITY           SKY/WX    TMP DP  RH WIND       PRES   REMARKS
FLAG ISLAND    CLEAR     10   3  72 W8        30.24R WCI  -1
WARROAD        CLEAR      7   3  85 SW9       30.27S WCI  -7
ROSEAU         CLEAR     12   7  79 W8        30.28S WCI   1
HALLOCK        CLEAR      3  -2  78 W5        30.31S WCI  -6
THF RVR FALLS  PTCLDY     7   1  78 SW9       30.32S WCI  -7
HALSTAD          N/A     13   5  70 W9          N/A  WCI   1
FOSSTON        MOCLDY     0  -4  85 S3        30.33S
BAUDETTE       CLEAR      8   3  80 W10       30.25R WCI  -6
WASKISH        CLEAR      3   1  92 SW9       30.29S WCI -11
CROOKSTON      PTCLDY     9   3  78 W9        30.37R WCI  -5
$$
  *****  WEATHER ACROSS CENTRAL AND WEST MINNESOTA  *****

CITY           SKY/WX    TMP DP  RH WIND       PRES   REMARKS
BEMIDJI        CLEAR      4   1  88 W8        30.31R WCI  -9
PARK RAPIDS    CLEAR      1  -3  83 W6        30.32R WCI -10
WADENA         FAIR       7   3  85 W7        30.35R WCI  -5
DETROIT LAKES  PTCLDY    10   9  92 W7        30.36S WCI   0
MOORHEAD       CLEAR     10   7  85 SW6       30.40S WCI   1
FERGUS FALLS   CLEAR      7   1  78 W6        30.44R WCI  -3
ELBOW LAKE     FAIR       8   5  87 W7        30.39S WCI  -3
MORRIS MN      CLEAR      9   5  85 NW7       30.41R WCI  -3
STAPLES        CLEAR      3   0  85 W6        30.35S WCI  -8
WHEATON        NOT AVBL
$$
  *****  WEATHER ELSEWHERE ACROSS MINNESOTA  *****

CITY           SKY/WX    TMP DP  RH WIND       PRES   REMARKS
DULUTH         PTCLDY    13   5  70 NW13      30.23R WCI  -2
INTRNTL FALLS  CLOUDY    10   3  73 W12       30.24R WCI  -5
ELY            CLEAR    N/A N/A N/A W7        30.21R
CLOQUET        PTCLDY    12   3  67 W10       30.28R WCI  -1
BRAINERD       CLEAR     13   6  74 W9        30.34R WCI   1
HIBBING        CLEAR     10   3  73 W10       30.25R WCI  -4
ALEXANDRIA     CLEAR     10   6  84 NW7       30.36R WCI  -1
SAINT CLOUD    PTCLDY    16   8  71 NW9       30.36R WCI   4
MINNEAPOLIS    CLOUDY    20   9  62 NW14      30.39R WCI   7
$$

  *****  WEATHER ACROSS SOUTH DAKOTA  *****

CITY           SKY/WX    TMP DP  RH WIND       PRES   REMARKS
SIOUX FALLS    CLEAR     15  11  83 NW6       30.43R WCI   6
BROOKINGS      NOT AVBL
WATERTOWN      CLEAR     11   6  81 NW7       30.39R WCI   0
HURON          CLEAR      9   6  88 CALM      30.45R
SISSETON         N/A     14   6  70 NW10      30.41R WCI   1
ABERDEEN       CLEAR      5   0  79 NW3       30.43R
MITCHELL       PTCLDY    14  11  87 CALM      30.46R
PIERRE         PTCLDY    14  11  87 E3        30.40S
MOBRIDGE       PTCLDY    12   8  84 SE3       30.35F
RAPID CITY     PTCLDY    13   6  74 CALM      30.30F
$$

  *****  SOME WEATHER IN NEARBY STATES *****

CITY           SKY/WX    TMP DP  RH WIND       PRES   REMARKS
GLASGOW MT     CLEAR     16   8  71 SE13      30.14F WCI   2
GREAT FALLS MT MOCLDY    29   9  43 S13       29.90F WCI  19
CHEYENNE WY    MOCLDY    19  13  77 S10       30.15F WCI   7
SCOTTSBLUFF NE CLOUDY    25  12  58 E7        30.27F WCI  17
OMAHA NE       PTCLDY    23  17  78 N5        30.48R WCI  17
DES MOINES IA  PTCLDY    23  14  68 CALM      30.45R
DAVENPORT IA   PTCLDY    11   4  73 W5        30.42R WCI   3
CHICAGO IL     CLEAR     19  10  68 W13       30.34R WCI   6
EAU CLAIRE WI  CLEAR     13   6  74 SW7       30.30R WCI   3
LA CROSSE WI   CLEAR     14   6  70 SW8       30.34R WCI   3
$$

  *****  SOME NATIONAL WEATHER *****

CITY           SKY/WX    TMP DP  RH WIND       PRES   REMARKS
LA GUARDIA NY  CLOUDY    29  26  89 CALM      30.15F FOG
RALEIGH NC     FOG       35  32  88 SW8       30.29F VSB 1/4
ATLANTA GA     CLOUDY    46  43  89 NW3       30.36S FOG
NEW ORLEANS LA CLOUDY    58  57  97 E13G22    30.29S FOG
OKLAHOMA CITY  CLOUDY    29  22  75 N6        30.46R WCI  23
ALBUQUERQUE NM PTCLDY    48  30  49 S8        30.10R
SALT LAKE CITY MOCLDY    38  30  73 S5        30.00S
LOS ANGELES CA MOCLDY    55  47  74 CALM      29.94S
BOISE ID       CLEAR     34  22  61 SE6       30.00F
SEATTLE WA     CLOUDY    46  31  55 N8        29.98S
$$

*** WEATHER ACROSS MANITOBA...SASKATCHEWAN AND ONTARIO ***
                ***ONTARIO***

CITY           SKY/WX    TMP DP  RH WIND       PRES   REMARKS
GERALDTON      PTCLDY    12   3  67 W7        29.96R WCI   2
THUNDER BAY    PTCLDY    14   3  62 W12G20    30.14R WCI   0
SIOUX LOOKOUT  CLEAR      9  -8  47 NW17G24   30.11R WCI -10
TORONTO        CLOUDY    19  12  73 W7        30.13S WCI  10
BIG TROUT LK   CLEAR    -13 -18  77 W7        30.03R WCI -29
PICKLE LAKE    NOT AVBL
DRYDEN         CLEAR      7   0  72 W10       30.15R WCI  -8
KENORA         PTCLDY     9   7  92 W7        30.20R WCI  -3
$$
                *** MANITOBA***

CITY           SKY/WX    TMP DP  RH WIND       PRES   REMARKS
BRANDON        CLEAR     -4  -9  77 W8        30.28S WCI -19
DAUPHIN        CLEAR      7   0  72 W12       30.25S WCI  -9
ISLAND LAKE    CLEAR     -8 -15  71 CALM      30.12R
PILOT MOUND      N/A      5   3  92 W5          N/A  WCI  -4
THE PAS        CLEAR      7  -4  61 SW6       30.13F WCI  -3
THOMPSON       PTCLDY   -18 -26  69 CALM      30.06F
WINNIPEG       CLEAR      5   0  78 W6        30.29S WCI  -6
LYNN LAKE      MOCLDY     0  -8  71 SW5       29.93F WCI -10
CHURCHILL      CLEAR    -17 -26  63 NW13      29.97S WCI -39
GILLAM         CLEAR    -13 -22  64 W7        30.04F WCI -29
$$
                ***SASKATCHEWAN***

CITY           SKY/WX    TMP DP  RH WIND       PRES   REMARKS
ESTEVAN        CLEAR     -2  -6  84 S7        30.24F WCI -16
KINDERSLEY     PTCLDY    16   9  73 SE17      29.91  WCI   0
LLOYDMINSTER   CLEAR      9   7  92 S9        29.87F WCI  -5
PRINCE ALBERT  CLEAR      3   1  92 CALM      30.06F
REGINA         PTCLDY     0  -2  92 SE10      30.16F WCI -17
YORKTON        CLEAR      1   0  92 S8        30.19F WCI -12



USA.gov is the U.S. government's official web portal to all federal, state and local government web resources and services.